Monroe, MI

9:31 AM EDT on July 26, 2016 (GMT -0400)
Custer

Weather History for KTTF - June, 2013

Change the Weather History Date:

Saturday, June 8, 2013

  Actual Average Record
Temperature  
Mean Temperature 65 °F -  
Max Temperature 71 °F 80 °F 100 °F (1933)
Min Temperature 59 °F 58 °F 37 °F (1998)
Growing Degree Days 15 (Base 50)    
Moisture  
Dew Point 55 °F    
Average Humidity 72    
Maximum Humidity 88    
Minimum Humidity 53    
Precipitation  
Precipitation 0.00 in - - ()
Sea Level Pressure  
Sea Level Pressure 29.98 in    
Wind  
Wind Speed 2 mph (ESE)    
Max Wind Speed 9 mph    
Max Gust Speed -    
Visibility 10 miles    
Events      
Averages and records for this station are not official NWS values.
T = Trace of Precipitation, MM = Missing Value Source: NWS Daily Summary

Daily Weather History Graph

Daily Weather History Graph

Search for Another Location

Airport or City:

Trip Planner

Search our weather history database for the weather conditions in past years. The results will help you decide how hot, cold, wet, or windy it might be!

Date:

Astronomy

Jun. 08, 2013 Rise Set
Actual Time 5:58 AM EDT 9:07 PM EDT
Civil Twilight 5:24 AM EDT 9:41 PM EDT
Nautical Twilight 4:40 AM EDT 10:25 PM EDT
Astronomical Twilight 3:48 AM EDT 11:17 PM EDT
Moon 6:06 AM EDT (6/8) 9:08 PM EDT (6/8)
Length of Visible Light 16h 17m
Length of Day
15h 09m
New Moon, 0% of the Moon is Illuminated
Jun 8
New Moon
Jun 16
First Quarter
Jun 23
Full
Jun 30
Last Quarter
Jul 8
New

Hourly Weather History & Observations

Time (EDT) Temp. Dew Point Humidity Pressure Visibility Wind Dir Wind Speed Gust Speed Precip Events Conditions
12:16 AM 60.8 °F 55.4 °F 82% 29.90 in 10.0 mi Calm Calm - N/A   Overcast
12:36 AM 60.8 °F 55.4 °F 82% 29.90 in 10.0 mi Calm Calm - N/A   Overcast
12:56 AM 59.0 °F 55.4 °F 88% 29.90 in 10.0 mi Calm Calm - N/A   Overcast
1:16 AM 59.0 °F 55.4 °F 88% 29.90 in 10.0 mi Calm Calm - N/A   Overcast
1:36 AM 59.0 °F 55.4 °F 88% 29.90 in 10.0 mi Calm Calm - N/A   Overcast
1:56 AM 59.0 °F 55.4 °F 88% 29.90 in 10.0 mi Calm Calm - N/A   Overcast
2:16 AM 59.0 °F 55.4 °F 88% 29.90 in 10.0 mi Calm Calm - N/A   Overcast
2:31 AM 59.0 °F 55.4 °F 88% 29.90 in 10.0 mi Calm Calm - N/A   Overcast
2:52 AM 59.0 °F 55.4 °F 88% 29.90 in 10.0 mi Calm Calm - N/A   Overcast
3:12 AM 59.0 °F 55.4 °F 88% 29.91 in 10.0 mi Calm Calm - N/A   Overcast
3:32 AM 59.0 °F 55.4 °F 88% 29.90 in 10.0 mi Calm Calm - N/A   Overcast
3:52 AM 59.0 °F 55.4 °F 88% 29.90 in 10.0 mi Calm Calm - N/A   Overcast
4:12 AM 59.0 °F 53.6 °F 82% 29.91 in 10.0 mi Calm Calm - N/A   Overcast
4:32 AM 59.0 °F 53.6 °F 82% 29.91 in 10.0 mi Calm Calm - N/A   Overcast
4:52 AM 59.0 °F 53.6 °F 82% 29.91 in 10.0 mi Calm Calm - N/A   Overcast
5:12 AM 59.0 °F 53.6 °F 82% 29.91 in 10.0 mi Calm Calm - N/A   Overcast
5:32 AM 59.0 °F 53.6 °F 82% 29.91 in 10.0 mi Calm Calm - N/A   Overcast
5:52 AM 59.0 °F 53.6 °F 82% 29.92 in 10.0 mi Calm Calm - N/A   Overcast
6:13 AM 59.0 °F 55.4 °F 88% 29.93 in 10.0 mi Calm Calm - N/A   Overcast
6:33 AM 59.0 °F 53.6 °F 82% 29.94 in 10.0 mi Calm Calm - N/A   Overcast
6:53 AM 59.0 °F 53.6 °F 82% 29.95 in 10.0 mi Calm Calm - N/A   Overcast
7:13 AM 59.0 °F 53.6 °F 82% 29.95 in 10.0 mi Calm Calm - N/A   Overcast
7:33 AM 59.0 °F 53.6 °F 82% 29.96 in 10.0 mi Calm Calm - N/A   Overcast
7:53 AM 59.0 °F 53.6 °F 82% 29.96 in 10.0 mi Calm Calm - N/A   Overcast
8:13 AM 60.8 °F 53.6 °F 77% 29.96 in 10.0 mi Calm Calm - N/A   Overcast
8:33 AM 60.8 °F 53.6 °F 77% 29.96 in 10.0 mi Calm Calm - N/A   Overcast
8:53 AM 60.8 °F 53.6 °F 77% 29.97 in 10.0 mi NNW 3.5 mph - N/A   Overcast
9:14 AM 62.6 °F 53.6 °F 72% 29.98 in 10.0 mi Calm Calm - N/A   Overcast
9:34 AM 62.6 °F 53.6 °F 72% 29.99 in 10.0 mi Calm Calm - N/A   Overcast
9:54 AM 64.4 °F 53.6 °F 68% 29.99 in 10.0 mi Calm Calm - N/A   Mostly Cloudy
10:14 AM 64.4 °F 51.8 °F 64% 29.99 in 10.0 mi Calm Calm - N/A   Mostly Cloudy
10:34 AM 64.4 °F 51.8 °F 64% 29.99 in 10.0 mi Calm Calm - N/A   Mostly Cloudy
10:54 AM 64.4 °F 51.8 °F 64% 30.00 in 10.0 mi North 3.5 mph - N/A   Overcast
11:14 AM 66.2 °F 51.8 °F 60% 29.99 in 10.0 mi NW 4.6 mph - N/A   Mostly Cloudy
11:34 AM 66.2 °F 51.8 °F 60% 29.99 in 10.0 mi Calm Calm - N/A   Mostly Cloudy
11:54 AM 66.2 °F 51.8 °F 60% 30.00 in 10.0 mi West 3.5 mph - N/A   Overcast
12:14 PM 68.0 °F 51.8 °F 56% 30.01 in 10.0 mi West 3.5 mph - N/A   Overcast
12:35 PM 69.8 °F 51.8 °F 53% 30.01 in 10.0 mi West 4.6 mph - N/A   Overcast
12:55 PM 69.8 °F 51.8 °F 53% 30.01 in 10.0 mi Calm Calm - N/A   Overcast
1:15 PM 69.8 °F 51.8 °F 53% 30.00 in 10.0 mi NE 5.8 mph - N/A   Overcast
1:35 PM 69.8 °F 51.8 °F 53% 29.99 in 10.0 mi Calm Calm - N/A   Overcast
1:55 PM 66.2 °F 55.4 °F 68% 29.99 in 10.0 mi ESE 5.8 mph - N/A   Mostly Cloudy
2:15 PM 69.8 °F 55.4 °F 60% 29.99 in 10.0 mi SE 4.6 mph - N/A   Mostly Cloudy
2:35 PM 69.8 °F 55.4 °F 60% 29.99 in 10.0 mi SE 6.9 mph - N/A   Scattered Clouds
2:55 PM 69.8 °F 55.4 °F 60% 29.99 in 10.0 mi SE 8.1 mph - N/A   Scattered Clouds
3:16 PM 69.8 °F 55.4 °F 60% 29.99 in 10.0 mi ESE 5.8 mph - N/A   Mostly Cloudy
3:36 PM 69.8 °F 55.4 °F 60% 30.00 in 10.0 mi SSE 6.9 mph - N/A   Scattered Clouds
3:56 PM 71.6 °F 55.4 °F 57% 29.99 in 10.0 mi ESE 9.2 mph - N/A   Clear
4:16 PM 71.6 °F 55.4 °F 57% 29.99 in 10.0 mi East 9.2 mph - N/A   Scattered Clouds
4:36 PM 71.6 °F 55.4 °F 57% 29.99 in 10.0 mi ESE 5.8 mph - N/A   Scattered Clouds
4:56 PM 71.6 °F 55.4 °F 57% 30.00 in 10.0 mi SSE 8.1 mph - N/A   Mostly Cloudy
5:16 PM 71.6 °F 55.4 °F 57% 30.00 in 10.0 mi SE 5.8 mph - N/A   Scattered Clouds
5:36 PM 71.6 °F 55.4 °F 57% 30.00 in 10.0 mi ESE 6.9 mph - N/A   Clear
5:56 PM 69.8 °F 53.6 °F 56% 30.01 in 10.0 mi East 5.8 mph - N/A   Clear
6:11 PM 69.8 °F 55.4 °F 60% 30.01 in 10.0 mi ESE 5.8 mph - N/A   Clear
6:32 PM 69.8 °F 55.4 °F 60% 30.01 in 10.0 mi East 5.8 mph - N/A   Clear
6:52 PM 68.0 °F 55.4 °F 64% 30.01 in 10.0 mi East 6.9 mph - N/A   Clear
7:12 PM 69.8 °F 53.6 °F 56% 30.01 in 10.0 mi East 5.8 mph - N/A   Clear
7:32 PM 68.0 °F 55.4 °F 64% 30.01 in 10.0 mi East 3.5 mph - N/A   Clear
7:52 PM 69.8 °F 55.4 °F 60% 30.01 in 10.0 mi ESE 3.5 mph - N/A   Clear
8:12 PM 68.0 °F 55.4 °F 64% 30.02 in 10.0 mi ESE 5.8 mph - N/A   Clear
8:32 PM 66.2 °F 55.4 °F 68% 30.02 in 10.0 mi ESE 3.5 mph - N/A   Clear
8:52 PM 66.2 °F 55.4 °F 68% 30.03 in 10.0 mi Calm Calm - N/A   Clear
9:12 PM 64.4 °F 55.4 °F 73% 30.03 in 10.0 mi East 3.5 mph - N/A   Clear
9:33 PM 64.4 °F 57.2 °F 77% 30.03 in 10.0 mi ESE 3.5 mph - N/A   Clear
9:53 PM 64.4 °F 57.2 °F 77% 30.05 in 10.0 mi ESE 3.5 mph - N/A   Clear
10:13 PM 62.6 °F 57.2 °F 82% 30.06 in 10.0 mi East 3.5 mph - N/A   Clear
10:33 PM 62.6 °F 57.2 °F 82% 30.07 in 10.0 mi ESE 3.5 mph - N/A   Scattered Clouds
10:53 PM 64.4 °F 57.2 °F 77% 30.07 in 10.0 mi ESE 3.5 mph - N/A   Scattered Clouds
11:13 PM 62.6 °F 59.0 °F 88% 30.07 in 10.0 mi ESE 4.6 mph - N/A   Clear
11:33 PM 62.6 °F 57.2 °F 82% 30.07 in 10.0 mi East 3.5 mph - N/A   Clear
11:53 PM 62.6 °F 59.0 °F 88% 30.07 in 10.0 mi SE 3.5 mph - N/A   Clear